CZ-6A DEB, 54621

Orbit data source: Space-Track

CZ-6A DEB, 54621 is space debris in SSO originally from a launch on Fri, 11 Nov 2022 UTC launched from the Taiyaun Space Center, China (TSC). Debris objects in space refer to the collection of defunct objects orbiting the Earth. Examples of debris include non-operational satellites, rocket bodies, and fragments generated from explosions, collisions, or faulty payload assembly.

Loading next visibility...
Identifier
54621, 2022-151NX
Orbit
SSO
Country
Flag of CNCN / PRC
Related business
Manufacturer
SAST
Mission
Spacecraft
Bus & Motor
Unknown
Mass
Unknown
Launch date (UTC)
2022-11-11 (4 years ago)
Launch vehicle
Unknown
Launch site
Taiyaun Space Center, China (TSC)
Object type
Payload
Rocket body
Debris
Shape & HBR
Unknown shape, 0.1 m
Radar Cross Section
Medium (>0.1 m² and <1 m²)

Expand to show TLE details & history
Last TLE update: 2 days ago

TLE from 2 days ago
0 CZ-6A DEB
1 54621U 22151NX  26171.42330113  .00000559  00000-0  34263-3 0  9993
2 54621  98.8460 165.0112 0058355 334.1080  25.7173 14.08999478183912
Epoch: 2026-06-20T10:09Z
TLE epoch observation values (Epoch: 2026-06-20T10:09:33.217Z)
Latitude
-0.00001°
Longitude
103.98466°
Altitude
827.663 km
Speed
7.459 km/s
True Right ascension
11h 00m 02s
True Declination
0° 00' 00"
Sunlit
Object was in daylight at epoch
Visualization orbit readout
Latitude
Unknown
Longitude
Unknown
Altitude
Unknown
Speed
Unknown
Apparent Right ascension
Unknown
Apparent Declination
Unknown
Sunlit
N/A
Visualization observer readout
Local Sidereal Time
22:00:33
Azimuth
Unknown
Elevation
Unknown
Doppler factor
Unknown
Orbital elements
Apogee altitude
902.215 km
Perigee altitude
817.739 km
Semi-major axis
7,238.114 km
Eccentricity
0.00584
Inclination
98.846°
RAAN
165.0112°
Arg. of periapsis
334.108°
True anomaly
26.00939°
Mean anomaly
25.7173°
Eccentric anomaly
25.86315°
Mean motion
3.52456 °/min
Orbital period
102.14 mins
BSTAR
0.00034263
Loading maneuver chart data...
Computing Atmospheric mass density...
Loading historical data...
Loading historical data...
Loading historical data...
Loading historical data...
Loading historical data...
Loading historical data...
Loading historical data...

Documentation

Showing up to 5 results
|